, AK

(GMT )
Valdez Airport

Weather History for PAVD - August, 2013

Change the Weather History Date:

Thursday, August 22, 2013

  Actual Average Record
Temperature  
Mean Temperature 48 °F -  
Max Temperature 51 °F 61 °F 80 °F (1979)
Min Temperature 44 °F 46 °F 35 °F (1965)
Degree Days  
Heating Degree Days 18    
Moisture  
Dew Point 47 °F    
Average Humidity 92    
Maximum Humidity 100    
Minimum Humidity 82    
Precipitation  
Precipitation 0.34 in - - ()
Sea Level Pressure  
Sea Level Pressure 29.82 in    
Wind  
Wind Speed 1 mph (East)    
Max Wind Speed 4 mph    
Max Gust Speed -    
Visibility 4 miles    
Events      
Averages and records for this station are not official NWS values.
T = Trace of Precipitation, MM = Missing Value Source: NWS Daily Summary

Daily Weather History Graph

Daily Weather History Graph

Search for Another Location

Airport or City:

Trip Planner

Search our weather history database for the weather conditions in past years. The results will help you decide how hot, cold, wet, or windy it might be!

Date:

Astronomy

Aug. 22, 2013 Rise Set
Actual Time 6:12 AM AKDT 9:20 PM AKDT
Civil Twilight 5:22 AM AKDT 10:10 PM AKDT
Nautical Twilight 4:10 AM AKDT 11:21 PM AKDT
Astronomical Twilight 2:20 AM AKDT 1:15 AM AKDT
Moon 9:11 PM AKDT (8/22) 9:02 AM AKDT (8/22)
Length of Visible Light 16h 48m
Length of Day
15h 08m
Waning Gibbous, 96% of the Moon is Illuminated
Aug 22
Waning Gibbous
Aug 28
Last Quarter
Sep 5
New
Sep 12
First Quarter
Sep 19
Full

Hourly Weather History & Observations

Time (AKDT) Temp. Windchill Dew Point Humidity Pressure Visibility Wind Dir Wind Speed Gust Speed Precip Events Conditions
12:16 AM 46.4 °F - 44.6 °F 93% 29.87 in 10.0 mi Calm Calm - 0.01 in   Overcast
12:36 AM 48.2 °F - 46.4 °F 93% 29.87 in 10.0 mi East 3.5 mph - 0.01 in   Mostly Cloudy
12:56 AM 46.4 °F - 44.6 °F 93% 29.87 in 10.0 mi Calm Calm - 0.02 in   Overcast
1:16 AM 46.4 °F 45.2 °F 44.6 °F 93% 29.87 in 10.0 mi East 3.5 mph - 0.01 in   Overcast
1:36 AM 46.4 °F - 44.6 °F 93% 29.87 in 10.0 mi Calm Calm - 0.02 in   Overcast
1:56 AM 46.4 °F - 44.6 °F 93% 29.87 in 10.0 mi Calm Calm - 0.03 in   Overcast
2:16 AM 46.4 °F 45.2 °F 44.6 °F 93% 29.86 in 10.0 mi East 3.5 mph - 0.01 in   Overcast
2:36 AM 46.4 °F 45.2 °F 44.6 °F 93% 29.86 in 10.0 mi East 3.5 mph - 0.02 in   Overcast
2:56 AM 46.4 °F 45.2 °F 44.6 °F 93% 29.86 in 10.0 mi East 3.5 mph - 0.02 in   Overcast
3:16 AM 46.4 °F - 44.6 °F 93% 29.85 in 9.0 mi Calm Calm - 0.01 in   Overcast
3:36 AM 46.4 °F - 44.6 °F 93% 29.85 in 7.0 mi Calm Calm - 0.02 in   Overcast
3:56 AM 46.4 °F - 44.6 °F 93% 29.85 in 10.0 mi Calm Calm - 0.03 in   Overcast
4:16 AM 46.4 °F - 44.6 °F 93% 29.85 in 10.0 mi Calm Calm - N/A   Overcast
4:36 AM 46.4 °F - 44.6 °F 93% 29.84 in 9.0 mi Calm Calm - 0.01 in   Overcast
4:56 AM 46.4 °F 45.2 °F 44.6 °F 93% 29.84 in 10.0 mi East 3.5 mph - 0.01 in   Overcast
5:16 AM 46.4 °F 45.2 °F 44.6 °F 93% 29.84 in 10.0 mi East 3.5 mph - 0.01 in   Overcast
5:36 AM 46.4 °F - 44.6 °F 93% 29.84 in 10.0 mi Calm Calm - 0.01 in   Overcast
5:56 AM 46.4 °F - 44.6 °F 93% 29.84 in 10.0 mi Calm Calm - 0.01 in   Overcast
6:16 AM 46.4 °F - 42.8 °F 87% 29.84 in 3.0 mi Calm Calm - 0.01 in   Overcast
6:36 AM 44.6 °F - 42.8 °F 93% 29.84 in 3.0 mi Calm Calm - 0.01 in   Overcast
6:56 AM 46.4 °F - 44.6 °F 93% 29.83 in 1.2 mi Calm Calm - 0.02 in   Overcast
7:16 AM 46.4 °F 45.2 °F 42.8 °F 87% 29.83 in 1.2 mi East 3.5 mph - N/A   Overcast
7:36 AM 46.4 °F - 44.6 °F 93% 29.84 in 1.2 mi Calm Calm - 0.01 in   Overcast
7:56 AM 46.4 °F - 44.6 °F 93% 29.84 in 1.5 mi Calm Calm - 0.02 in   Overcast
8:16 AM 46.4 °F 45.2 °F 44.6 °F 93% 29.84 in 1.5 mi East 3.5 mph - N/A   Overcast
8:36 AM 46.4 °F - 44.6 °F 93% 29.83 in 1.5 mi Calm Calm - 0.02 in   Overcast
8:56 AM 48.2 °F - 46.4 °F 93% 29.83 in 3.0 mi Calm Calm - 0.03 in   Overcast
9:16 AM 48.2 °F - 46.4 °F 93% 29.83 in 3.0 mi Calm Calm - 0.01 in   Overcast
9:36 AM 48.2 °F - 46.4 °F 93% 29.83 in 3.0 mi Calm Calm - 0.03 in   Overcast
9:56 AM 48.2 °F - 48.2 °F 100% 29.83 in 4.0 mi Calm Calm - 0.04 in   Overcast
10:16 AM 48.2 °F - 46.4 °F 93% 29.83 in 4.0 mi Calm Calm - 0.01 in   Overcast
10:36 AM 50.0 °F - 48.2 °F 94% 29.83 in 4.0 mi Calm Calm - 0.01 in   Overcast
10:56 AM 50.0 °F - 48.2 °F 94% 29.83 in 4.0 mi Calm Calm - 0.01 in   Overcast
11:16 AM 51.8 °F - 48.2 °F 88% 29.83 in 4.0 mi Calm Calm - N/A   Overcast
11:36 AM 51.8 °F - 48.2 °F 88% 29.83 in 4.0 mi Calm Calm - 0.01 in   Overcast
11:56 AM 50.0 °F - 48.2 °F 94% 29.83 in 2.0 mi Calm Calm - 0.01 in   Overcast
12:16 PM 50.0 °F - 46.4 °F 87% 29.83 in 2.0 mi Calm Calm - N/A   Overcast
12:36 PM 51.8 °F - 46.4 °F 82% 29.83 in 2.0 mi Calm Calm - N/A   Overcast
12:56 PM 50.0 °F - 48.2 °F 94% 29.83 in 3.0 mi Calm Calm - N/A   Overcast
1:16 PM 50.0 °F - 48.2 °F 94% 29.83 in 3.0 mi Calm Calm - N/A   Overcast
1:36 PM 51.8 °F - 48.2 °F 88% 29.83 in 3.0 mi Calm Calm - N/A   Overcast
1:56 PM 51.8 °F - 48.2 °F 88% 29.83 in 1.5 mi Calm Calm - N/A   Overcast
2:16 PM 51.8 °F - 48.2 °F 88% 29.83 in 1.5 mi WSW 3.5 mph - N/A   Overcast
2:36 PM 51.8 °F - 48.2 °F 88% 29.83 in 1.5 mi SW 3.5 mph - N/A   Overcast
2:56 PM 51.8 °F - 48.2 °F 88% 29.83 in 1.5 mi Calm Calm - 0.01 in   Overcast
3:16 PM 51.8 °F - 48.2 °F 88% 29.83 in 1.5 mi Calm Calm - N/A   Overcast
3:36 PM 51.8 °F - 48.2 °F 88% 29.82 in 1.5 mi Calm Calm - 0.01 in   Overcast
3:56 PM 51.8 °F - 48.2 °F 88% 29.82 in 2.0 mi Calm Calm - 0.01 in   Overcast
4:16 PM 51.8 °F - 48.2 °F 88% 29.82 in 2.0 mi Calm Calm - N/A   Overcast
4:36 PM 51.8 °F - 48.2 °F 88% 29.81 in 2.0 mi Calm Calm - 0.01 in   Overcast
4:56 PM 51.8 °F - 48.2 °F 88% 29.81 in 4.0 mi Calm Calm - 0.01 in   Overcast
5:16 PM 51.8 °F - 50.0 °F 94% 29.81 in 4.0 mi SW 3.5 mph - N/A   Overcast
5:36 PM 51.8 °F - 48.2 °F 88% 29.80 in 4.0 mi Calm Calm - 0.01 in   Overcast
5:56 PM 51.8 °F - 50.0 °F 94% 29.80 in 4.0 mi Calm Calm - 0.01 in   Overcast
6:16 PM 51.8 °F - 50.0 °F 94% 29.79 in 4.0 mi Calm Calm - N/A   Overcast
6:56 PM 51.8 °F - 48.2 °F 88% 29.79 in 4.0 mi Calm Calm - N/A   Overcast
7:16 PM 51.8 °F - 48.2 °F 88% 29.79 in 4.0 mi Calm Calm - N/A   Overcast
7:36 PM 51.8 °F - 48.2 °F 88% 29.78 in 4.0 mi Calm Calm - N/A   Overcast
7:56 PM 51.8 °F - 48.2 °F 88% 29.78 in 0.8 mi Calm Calm - N/A   Overcast
8:16 PM 51.8 °F - 48.2 °F 88% 29.78 in 0.8 mi Calm Calm - N/A   Overcast
8:36 PM 51.8 °F - 48.2 °F 88% 29.78 in 0.8 mi Calm Calm - 0.01 in   Overcast
8:56 PM 51.8 °F - 48.2 °F 88% 29.78 in 0.5 mi Calm Calm - 0.01 in   Overcast
9:16 PM 48.2 °F - 48.2 °F 100% 29.78 in 0.5 mi East 3.5 mph - N/A   Overcast
9:36 PM 48.2 °F - 48.2 °F 100% 29.78 in 0.5 mi Calm Calm - N/A   Overcast
9:56 PM 48.2 °F - 46.4 °F 93% 29.78 in 0.5 mi East 3.5 mph - 0.01 in   Unknown
10:16 PM 48.2 °F - 46.4 °F 93% 29.78 in 2.5 mi Calm Calm - N/A   Overcast
10:36 PM 48.2 °F - 48.2 °F 100% 29.78 in 4.0 mi Calm Calm - 0.01 in   Overcast
10:56 PM 48.2 °F - 46.4 °F 93% 29.77 in 5.0 mi East 3.5 mph - 0.01 in   Overcast
11:16 PM 48.2 °F - 46.4 °F 93% 29.77 in 4.0 mi East 3.5 mph - N/A   Overcast
11:36 PM 48.2 °F - 46.4 °F 93% 29.76 in 5.0 mi Calm Calm - 0.01 in   Overcast
11:56 PM 46.4 °F 45.2 °F 44.6 °F 93% 29.76 in 5.0 mi East 3.5 mph - 0.02 in   Overcast